{"data":{"norad_id":38331,"intl_designator":"2012-023A","name":"JCSAT-13","alt_names":[],"object_type":"PAYLOAD","status":"ACTIVE","operator":null,"country":"JPN","launch_date":"2012-05-15","launch_site_code":"FRGUI","launch_vehicle":null,"mission":null,"orbit_class":"UNKNOWN","rcs_meters":39.8107,"size_class":null,"mass_kg":null,"dimensions":null,"purposes":["comms"],"wikipedia_slug":null,"has_3d_model":false,"image_url":null,"decayed_at":null,"tle_current":{"epoch":"2026-05-25T00:54:35.906976Z","epoch_age_seconds":71065,"freshness":"FRESH","line1":"1 38331U 12023A   26145.03791559 -.00000359  00000+0  00000+0 0  9999","line2":"2 38331   0.0406 109.8987 0002540 321.4535 308.9391  1.00271320 51304","mean_motion":1.0027132,"eccentricity":0.000254,"inclination_deg":0.0406,"raan_deg":109.8987,"arg_perigee_deg":321.4535,"mean_anomaly_deg":308.9391,"bstar":0,"rev_number":5130,"period_min":1436.1035638107,"perigee_km":35776.015443046,"apogee_km":35797.435193103,"semimajor_km":42164.862318074,"source":"CELESTRAK","updated_at":"2026-05-25T13:38:13.910541Z"}}}